Regional Weather Roundup
Issued by NWS

Home | Current Version | Previous Version | Graphics & Text | Print | Product List | Glossary On
Versions: 1 2 3 4 5 6 7 8 9 10 11 12 13 14 15 16 17 18 19 20 21 22 23 24 25 26 27 28 29 30 31 32 33 34 35 36 37 38 39 40 41 42 43 44 45 46 47 48 49 50
000
ASUS43 KLMK 302010
RWRKY
KENTUCKY REGIONAL WEATHER ROUNDUP
NATIONAL WEATHER SERVICE LOUISVILLE KY
400 PM EDT TUE AUG 30 2016

NOTE "FAIR" INDICATES FEW OR NO CLOUDS BELOW 12,000 FEET
WITH NO SIGNIFICANT WEATHER AND/OR OBSTRUCTIONS TO VISIBILITY.

KYZ001>023-026-027-061>063-070>075-302100-
WESTERN AND SOUTH CENTRAL KENTUCKY

CITY           SKY/WX    TMP DP  RH WIND       PRES   REMARKS
PADUCAH        SUNNY     93  71  48 E7        30.04F HX 100
HENDERSON      SUNNY     91  70  49 E3        30.04F HX  97
OWENSBORO      MOSUNNY   92  73  53 N7        30.05F HX 100
HOPKINSVILLE   MOSUNNY   91  71  50 CALM      30.04F HX  97
BOWLING GREEN  MOSUNNY   93  70  46 CALM      30.05F HX  99
GLASGOW        MOSUNNY   90  71  52 NE6       30.06F HX  96
$$

KYZ024-025-028>034-038-045-046-053-302100-
NORTH CENTRAL KENTUCKY

CITY           SKY/WX    TMP DP  RH WIND       PRES   REMARKS
LOUISVILLE/SDF PTSUNNY   91  65  41 CALM      30.05F HX  93
LOUISVILLE/LOU MOSUNNY   93  66  40 VRB5      30.06F HX  96
FORT KNOX      MOSUNNY   89  70  53 NE6       30.06F HX  94
$$

KYZ035>037-039>044-047>052-055>060-089>105-302100-
NORTHEAST KENTUCKY

CITY           SKY/WX    TMP DP  RH WIND       PRES   REMARKS
LEXINGTON      MOSUNNY   91  66  43 E6        30.09F HX  93
COVINGTON      MOSUNNY   89  63  41 SE6       30.10F HX  90
FRANKFORT      SUNNY     91  67  44 CALM      30.07F HX  94
$$

KYZ054-064>069-076>088-106>120-302100-
SOUTHEAST KENTUCKY

CITY           SKY/WX    TMP DP  RH WIND       PRES   REMARKS
JACKSON        MOSUNNY   87  68  52 CALM      30.10F HX  90
LONDON         MOSUNNY   89  66  46 MISG      30.09F HX  91
SOMERSET       MOSUNNY   88  66  48 CALM      30.08F HX  90
MIDDLESBORO    PTSUNNY   91  67  46 NW3       30.08F HX  94
MONTICELLO     CLOUDY   N/A N/A N/A SE7       30.08F
$$





USA.gov is the U.S. government's official web portal to all federal, state and local government web resources and services.